Tehachapi, CA

4:42 AM PDT on April 25, 2018 (GMT -0700)
Tehachapi Municipal

Weather History for KTSP - June, 2014

Change the Weather History Date:

Sunday, June 22, 2014

  Actual Average Record
Temperature  
Mean Temperature 70 °F -  
Max Temperature 82 °F 83 °F 95 °F (2017)
Min Temperature 57 °F 53 °F 50 °F (2012)
Cooling Degree Days 4    
Growing Degree Days 20 (Base 50)    
Moisture  
Dew Point 23 °F    
Average Humidity 17    
Maximum Humidity 34    
Minimum Humidity 10    
Precipitation  
Precipitation 0.00 in - - ()
Sea Level Pressure  
Sea Level Pressure 30.01 in    
Wind  
Wind Speed 14 mph (WNW)    
Max Wind Speed 24 mph    
Max Gust Speed 29 mph    
Visibility 10 miles    
Events      
Averages and records for this station are not official NWS values.
T = Trace of Precipitation, MM = Missing Value Source: NWS Daily Summary

Daily Weather History Graph

Daily Weather History Graph

Search for Another Location

Airport or City:

Astronomy

Jun. 22, 2014 Rise Set
Actual Time 5:40 AM PDT 8:11 PM PDT
Civil Twilight 5:10 AM PDT 8:41 PM PDT
Nautical Twilight 4:33 AM PDT 9:18 PM PDT
Astronomical Twilight 3:52 AM PDT 9:59 PM PDT
Moon 2:23 AM PDT (6/22) 4:04 PM PDT (6/22)
Length of Visible Light 15h 31m
Length of Day
14h 31m
Waning Crescent, 20% of the Moon is Illuminated
Jun 22
Waning Crescent
Jun 27
New
Jul 5
First Quarter
Jul 12
Full
Jul 18
Last Quarter

Hourly Weather History & Observations

Time (PDT) Temp. Dew Point Humidity Pressure Visibility Wind Dir Wind Speed Gust Speed Precip Events Conditions
12:15 AM 66.2 °F 32.0 °F 28% 30.01 in 10.0 mi West 16.1 mph 21.9 mph N/A   Clear
12:35 AM 64.4 °F 33.8 °F 32% 30.01 in 10.0 mi WNW 16.1 mph - N/A   Clear
12:55 AM 66.2 °F 35.6 °F 32% 30.02 in 10.0 mi West 16.1 mph - N/A   Clear
1:15 AM 64.4 °F 35.6 °F 34% 30.01 in 10.0 mi West 13.8 mph 21.9 mph N/A   Clear
1:35 AM 66.2 °F 32.0 °F 28% 30.01 in 10.0 mi WNW 16.1 mph 24.2 mph N/A   Clear
1:55 AM 64.4 °F 32.0 °F 30% 30.01 in 10.0 mi West 16.1 mph 21.9 mph N/A   Clear
2:15 AM 62.6 °F 32.0 °F 32% 30.00 in 10.0 mi West 15.0 mph - N/A   Clear
2:35 AM 62.6 °F 30.2 °F 30% 30.00 in 10.0 mi WNW 15.0 mph 19.6 mph N/A   Clear
2:55 AM 62.6 °F 26.6 °F 26% 30.00 in 10.0 mi WNW 10.4 mph - N/A   Clear
3:15 AM 62.6 °F 32.0 °F 32% 30.00 in 10.0 mi WNW 12.7 mph 18.4 mph N/A   Clear
3:35 AM 59.0 °F 30.2 °F 34% 29.99 in 10.0 mi WNW 11.5 mph - N/A   Clear
3:55 AM 59.0 °F 26.6 °F 29% 29.99 in 10.0 mi WNW 10.4 mph 16.1 mph N/A   Clear
4:15 AM 59.0 °F 24.8 °F 27% 29.99 in 10.0 mi NW 9.2 mph 16.1 mph N/A   Clear
4:35 AM 60.8 °F 23.0 °F 23% 30.00 in 10.0 mi NW 10.4 mph - N/A   Clear
4:55 AM 60.8 °F 21.2 °F 22% 30.00 in 10.0 mi WNW 8.1 mph - N/A   Clear
5:15 AM 60.8 °F 21.2 °F 22% 30.00 in 10.0 mi WNW 5.8 mph - N/A   Clear
5:35 AM 59.0 °F 19.4 °F 22% 30.01 in 10.0 mi WNW 4.6 mph - N/A   Clear
5:55 AM 57.2 °F 19.4 °F 23% 30.01 in 10.0 mi NNE 4.6 mph - N/A   Clear
6:15 AM 57.2 °F 17.6 °F 21% 30.02 in 10.0 mi NNE 4.6 mph - N/A   Clear
6:35 AM 59.0 °F 17.6 °F 20% 30.02 in 10.0 mi Calm Calm - N/A   Clear
6:55 AM 62.6 °F 19.4 °F 19% 30.02 in 10.0 mi Calm Calm - N/A   Clear
7:15 AM 64.4 °F 17.6 °F 16% 30.02 in 10.0 mi West 8.1 mph - N/A   Clear
7:35 AM 68.0 °F 19.4 °F 16% 30.02 in 10.0 mi West 11.5 mph - N/A   Clear
7:55 AM 69.8 °F 17.6 °F 14% 30.02 in 10.0 mi NW 10.4 mph - N/A   Clear
8:15 AM 71.6 °F 15.8 °F 12% 30.03 in 10.0 mi NW 11.5 mph - N/A   Clear
8:35 AM 71.6 °F 15.8 °F 12% 30.03 in 10.0 mi NW 12.7 mph - N/A   Clear
8:55 AM 73.4 °F 15.8 °F 11% 30.03 in 10.0 mi NW 16.1 mph 21.9 mph N/A   Clear
9:15 AM 73.4 °F 17.6 °F 12% 30.04 in 10.0 mi NW 13.8 mph - N/A   Clear
9:35 AM 75.2 °F 17.6 °F 11% 30.03 in 10.0 mi NW 16.1 mph 23.0 mph N/A   Clear
9:55 AM 75.2 °F 19.4 °F 12% 30.03 in 10.0 mi NW 17.3 mph 24.2 mph N/A   Clear
10:15 AM 75.2 °F 23.0 °F 14% 30.03 in 9.0 mi NW 18.4 mph - N/A   Clear
10:35 AM 77.0 °F 24.8 °F 14% 30.03 in 9.0 mi NW 18.4 mph 24.2 mph N/A   Clear
10:55 AM 77.0 °F 26.6 °F 16% 30.04 in 9.0 mi NW 17.3 mph 23.0 mph N/A   Clear
11:15 AM 77.0 °F 24.8 °F 14% 30.04 in 9.0 mi NW 18.4 mph - N/A   Clear
11:35 AM 77.0 °F 24.8 °F 14% 30.04 in 9.0 mi NW 18.4 mph 26.5 mph N/A   Clear
11:55 AM 78.8 °F 26.6 °F 15% 30.04 in 9.0 mi NW 17.3 mph 23.0 mph N/A   Clear
12:15 PM 80.6 °F 26.6 °F 14% 30.04 in 10.0 mi WNW 16.1 mph 24.2 mph N/A   Clear
12:35 PM 80.6 °F 26.6 °F 14% 30.03 in 10.0 mi NW 17.3 mph 23.0 mph N/A   Clear
12:55 PM 80.6 °F 26.6 °F 14% 30.03 in 10.0 mi NW 15.0 mph 24.2 mph N/A   Clear
1:15 PM 80.6 °F 24.8 °F 13% 30.03 in 9.0 mi NW 19.6 mph 25.3 mph N/A   Clear
1:35 PM 82.4 °F 24.8 °F 12% 30.02 in 9.0 mi WNW 19.6 mph 24.2 mph N/A   Clear
1:55 PM 82.4 °F 24.8 °F 12% 30.02 in 9.0 mi NW 19.6 mph 27.6 mph N/A   Clear
2:15 PM 82.4 °F 24.8 °F 12% 30.02 in 10.0 mi NW 19.6 mph 27.6 mph N/A   Clear
2:35 PM 82.4 °F 24.8 °F 12% 30.02 in 9.0 mi NW 24.2 mph 27.6 mph N/A   Clear
2:55 PM 80.6 °F 24.8 °F 13% 30.01 in 10.0 mi NW 20.7 mph 27.6 mph N/A   Clear
3:15 PM 82.4 °F 24.8 °F 12% 30.01 in 9.0 mi NW 20.7 mph 27.6 mph N/A   Clear
3:35 PM 82.4 °F 24.8 °F 12% 30.01 in 9.0 mi WNW 19.6 mph 27.6 mph N/A   Clear
3:55 PM 82.4 °F 26.6 °F 13% 30.01 in 9.0 mi NW 20.7 mph 28.8 mph N/A   Clear
4:15 PM 80.6 °F 24.8 °F 13% 30.00 in 10.0 mi NW 20.7 mph 26.5 mph N/A   Clear
4:35 PM 80.6 °F 24.8 °F 13% 30.00 in 10.0 mi NW 20.7 mph 27.6 mph N/A   Clear
4:55 PM 80.6 °F 23.0 °F 12% 30.00 in 9.0 mi NW 23.0 mph 28.8 mph N/A   Clear
5:15 PM 80.6 °F 23.0 °F 12% 30.00 in 10.0 mi NW 21.9 mph 27.6 mph N/A   Clear
5:35 PM 80.6 °F 23.0 °F 12% 29.99 in 9.0 mi NW 19.6 mph 26.5 mph N/A   Clear
5:55 PM 80.6 °F 19.4 °F 10% 29.99 in 10.0 mi NW 17.3 mph 25.3 mph N/A   Clear
6:15 PM 78.8 °F 17.6 °F 10% 29.99 in 10.0 mi NW 20.7 mph 27.6 mph N/A   Clear
6:35 PM 78.8 °F 17.6 °F 10% 29.99 in 10.0 mi NW 17.3 mph 25.3 mph N/A   Clear
6:55 PM 77.0 °F 17.6 °F 11% 29.99 in 10.0 mi NW 17.3 mph 24.2 mph N/A   Clear
7:15 PM 77.0 °F 15.8 °F 10% 29.99 in 10.0 mi WNW 15.0 mph 25.3 mph N/A   Clear
7:35 PM 75.2 °F 15.8 °F 11% 30.00 in 10.0 mi WNW 16.1 mph 20.7 mph N/A   Clear
7:55 PM 75.2 °F 17.6 °F 11% 30.00 in 10.0 mi WNW 17.3 mph 23.0 mph N/A   Clear
8:15 PM 73.4 °F 19.4 °F 13% 30.01 in 10.0 mi WNW 12.7 mph - N/A   Clear
8:35 PM 71.6 °F 19.4 °F 14% 30.01 in 10.0 mi WNW 15.0 mph - N/A   Clear
8:55 PM 69.8 °F 19.4 °F 15% 30.01 in 10.0 mi West 11.5 mph - N/A   Clear
9:15 PM 69.8 °F 17.6 °F 14% 30.01 in 10.0 mi WNW 12.7 mph - N/A   Clear
9:35 PM 68.0 °F 19.4 °F 16% 30.02 in 10.0 mi West 12.7 mph - N/A   Clear
9:55 PM 68.0 °F 23.0 °F 18% 30.02 in 10.0 mi West 12.7 mph - N/A   Clear
10:15 PM 66.2 °F 23.0 °F 19% 30.03 in 10.0 mi West 11.5 mph - N/A   Clear
10:35 PM 66.2 °F 21.2 °F 18% 30.03 in 10.0 mi West 10.4 mph - N/A   Clear
10:55 PM 68.0 °F 21.2 °F 17% 30.03 in 10.0 mi West 11.5 mph - N/A   Clear
11:15 PM 68.0 °F 23.0 °F 18% 30.02 in 10.0 mi West 15.0 mph - N/A   Clear
11:35 PM 68.0 °F 23.0 °F 18% 30.03 in 10.0 mi West 11.5 mph 19.6 mph N/A   Clear
11:55 PM 68.0 °F 23.0 °F 18% 30.02 in 10.0 mi WNW 12.7 mph - N/A   Clear